Showing default

USA 164, 27168

Orbit data source: Space-Track

USA 164, 27168 is a payload satellite owned by USAF SMC (US) in GEO that was launched on Mon, 14 Jan 2002 UTC via a TITAN 401B/CENTAUR launch vehicle from the Air Force Eastern Test Range (AFETR). Payload-class satellites include a variety of spacecraft equipped with specific instruments for various scientific and technological missions. These include communications satellites like Starlink; space stations such as the ISS; scientific satellites like the Hubble; Earth observation satellites from companies like Planet Labs, Umbra, and HawkEye 360; GPS; miniature CubeSats for education and research; and military/defense satellites.

Not visible in the next 10 days
Identifier
27168, 2002-001A
Orbit
GEO
Country
Flag of USUS
Related business
Manufacturer
LMMS/Sunnyvale
Mission
Operational Defense Communications
Bus & Motor
MILSTAR, AOCS
Mass
4,500 kg wet, ~4,200 kg dry
Launch date (UTC)
2002-01-14 (25 years ago)
Launch vehicle
TITAN 401B/CENTAUR
Launch site
Air Force Eastern Test Range (AFETR)
Object type
Payload
Rocket body
Debris
Shape & HBR
Cyl + 1 Truss + 1 Ant, 17.5 m
Radar Cross Section
74.603 m², Medium (>0.1 m² and < 1m²)

Expand to show TLE details & history
Last TLE update: 1 day ago

TLE from 1 day ago
0 USA 164
1 27168U 02001A   26266.80905980  .00000103  00000-0  00000-0 0  9992
2 27168  11.2979  21.2819 0098031  10.3779 281.1863  1.00272808 33942
Epoch: 2026-09-23T19:25Z
TLE epoch observation values (Epoch: 2026-09-23T19:25:02.766Z)
Latitude
-10.5766°
Longitude
18.16797°
Altitude
35,709.757 km
Speed
3.08 km/s
True Right ascension
20h 48m 20s
True Declination
-10° 33' 58"
Sunlit
Object was in daylight at epoch
Visualization orbit readout
Latitude
Unknown
Longitude
Unknown
Altitude
Unknown
Speed
Unknown
Apparent Right ascension
Unknown
Apparent Declination
Unknown
Sunlit
N/A
Visualization observer readout
Local Sidereal Time
12:20:17
Azimuth
Unknown
Elevation
Unknown
Doppler factor
Unknown
Orbital elements
Apogee altitude
36,200.671 km
Perigee altitude
35,373.966 km
Semi-major axis
42,165.456 km
Eccentricity
0.0098
Inclination
11.2979°
RAAN
21.2819°
Arg. of periapsis
10.3779°
True anomaly
280.08173°
Mean anomaly
281.1863°
Eccentric anomaly
280.63427°
Mean motion
0.25067 °/min
Orbital period
1,436.13 mins
BSTAR
0
Loading maneuver chart data...
Computing Atmospheric mass density...
Loading historical data...
Loading historical data...
Loading historical data...
Loading historical data...
Loading historical data...
Loading historical data...
Loading historical data...
Other satellites on launch #1 in the year 2002 (2002-01-14 UTC)

Documentation

Showing up to 5 results
|